Regional Weather Roundup
Issued by NWS

Home | Current Version | Previous Version | Graphics & Text | Print | Product List | Glossary On
Versions: 1 2 3 4 5 6 7 8 9 10 11 12 13 14 15 16 17 18 19 20 21 22 23 24 25 26 27 28 29 30 31 32 33 34 35 36 37 38 39 40 41 42 43 44 45 46 47 48 49 50
000
ASUS45 KPSR 272100
RWRAZ

PRELIMINARY ARIZONA REGIONAL HOURLY WEATHER ROUNDUP
NATIONAL WEATHER SERVICE PHOENIX AZ
200 PM MST THU NOV 27 2014

NOTE: FAIR INDICATES FEW OR NO CLOUDS BELOW 12,000 FEET WITH NO
SIGNIFICANT WEATHER AND/OR OBSTRUCTIONS TO VISIBILITY.

AZZ001>003-036-272200-
NORTHWEST ARIZONA

CITY           SKY/WX    TMP DP  RH WIND       PRES   REMARKS
KINGMAN        FAIR      75  12   9 W3        30.22F
$$

AZZ004>008-015-016-018-272200-
NORTH CENTRAL ARIZONA

CITY           SKY/WX    TMP DP  RH WIND       PRES   REMARKS
GRAND CANYON   FAIR      65   1   8 SW8       30.38F
PRESCOTT       FAIR      69  12  11 N6        30.30F
FLAGSTAFF      NOT AVBL
PAYSON         FAIR      66  16  14 SW8G15    30.32F
PAGE           FAIR      55  18  23 NE5       30.34F
$$

AZZ009>014-017-272200-
NORTHEAST ARIZONA

CITY           SKY/WX    TMP DP  RH WIND       PRES   REMARKS
WINSLOW        NOT AVBL
SAINT JOHNS    FAIR      64  18  17 N3        30.33F
SHOW LOW       FAIR      59  18  20 CALM      30.39F
$$

AZZ023-272200-
GREATER PHOENIX AREA

CITY           SKY/WX    TMP DP  RH WIND       PRES   REMARKS
PHOENIX        FAIR      86  20   9 CALM      30.08F
GLENDALE       SUNNY     81  28  15 CALM      30.11F
LUKE AFB       FAIR      79  28  15 CALM      30.10F HAZE
DEER VALLEY    FAIR      82  17   9 SE6       30.10F
SCOTTSDALE     FAIR      83  17   8 CALM      30.12F
MESA-FALCON    SUNNY     82  21  10 NW6       30.10F
MESA-GATEWAY   SUNNY     81  27  13 CALM      30.12F
CHANDLER       SUNNY     79  28  15 VRB5      30.10F
$$

AZZ027-028-272200-
SOUTHWEST MARICOPA COUNTY AND PINAL COUNTY

CITY           SKY/WX    TMP DP  RH WIND       PRES   REMARKS
CASA GRANDE    FAIR      82  25  12 NE8       30.10F
$$

AZZ503-504-507>509-272200-
SOUTHEAST ARIZONA

CITY           SKY/WX    TMP DP  RH WIND       PRES   REMARKS
TUCSON         FAIR      83  19   9 SE15      30.15F
RYAN FIELD       N/A    N/A N/A N/A E13       30.13F
NOGALES        FAIR      81  19  10 E6        30.18F
SIERRA VISTA   FAIR      73  17  12 SE9       30.26F
SAFFORD        FAIR      72  19  13 VRB6      30.24F
$$

AZZ020-021-025-026-031-272200-
SOUTHWEST ARIZONA

CITY           SKY/WX    TMP DP  RH WIND       PRES   REMARKS
YUMA           FAIR      84  22  10 N8        30.07F
$$

CAZ031-033-041-043-047-048-061-272200-
SOUTHERN CALIFORNIA

CITY           SKY/WX    TMP DP  RH WIND       PRES   REMARKS
DOWNTOWN L.A.  FAIR      88  22   9 CALM      30.02F
L.A. AIRPORT   PTSUNNY   77  38  24 W12       30.03F
SAN DIEGO      FAIR      84  22  10 NW9       30.03F
BURBANK        FAIR      88  18   7 CALM      30.04F
ONTARIO        PTSUNNY   86  17   8 S3        30.05F
RIVERSIDE      FAIR      89  15   6 NW5       30.05F
PALM SPRINGS   FAIR      83  21  10 E6        30.10F
EL CENTRO NAS  FAIR      81  30  15 N6        30.07F
IMPERIAL       FAIR      79  29  16 W3        30.07F
BLYTHE         FAIR      78  19  11 CALM      30.10F
$$

NVZ020-UTZ003-272200-
SOUTHERN NEVADA-UTAH

CITY           SKY/WX    TMP DP  RH WIND       PRES   REMARKS
LAS VEGAS      NOT AVBL
SALT LAKE CITY PTSUNNY   57  28  33 SE5       30.22F
$$

NMZ009-TXZ055-272200-
NEW MEXICO-WEST TEXAS

CITY           SKY/WX    TMP DP  RH WIND       PRES   REMARKS
ALBUQUERQUE    MOSUNNY   58  23  26 CALM      30.36F
EL PASO        FAIR      66  21  18 CALM      30.31F
$$


........................KEY........................
SKY/WX - SKY CONDITION/WEATHER
TMP    - TEMPERATURE IN FAHRENHEIT
DP     - DEW POINT IN FAHRENHEIT
RH     - RELATIVE HUMIDITY IN PERCENT
WIND   - DIRECTION AND SPEED IN MILES PER HOUR (MPH)
VRB    - VARIABLE WIND DIRECTION
PRES   - MEAN SEA LEVEL PRESSURE IN INCHES OF MERCURY
         F - FALLING PRESSURE   R - RISING PRESSURE
         S - STEADY PRESSURE
VSB    - VISIBILITY IN MILES
HX     - HEAT INDEX IN FAHRENHEIT
WCI    - WIND CHILL INDEX IN FAHRENHEIT
TC     - TEMPERATURE IN CELSIUS WHICH IS ALSO KNOWN AS
         TEMPERATURE IN CENTIGRADE
AFB    - AIR FORCE BASE
         LUKE AFB IS LUKE AIR FORCE BASE
         DAVIS-MONTHAN IS DAVIS-MONTHAN AIR FORCE BASE
NAS    - NAVAL AIR STATION
         EL CENTRO NAS IS EL CENTRO NAVAL AIR STATION
N/A    - NOT AVAILABLE



USA.gov is the U.S. government's official web portal to all federal, state and local government web resources and services.